#timestamp,LO_Frequency,Hit,StdDev 
1607036415.6,286046995.3,N
1607036435.4,286046993.8,N
1607036455.3,286046993.7,N
1607036475.1,286046996.8,N
1607036495.9,286046997.5,N
1607036515.7,286046997.8,N
1607036535.5,286046998.0,N
1607036555.4,286046996.8,N
1607036575.2,286046997.9,N
1607036595.0,286046995.6,N
1607036595.9,286046995.6,N
1607036615.8,286046997.1,N
1607036635.6,286046998.8,N
1607036655.5,286046998.4,N
1607036675.3,286046998.3,N
1607036695.1,286046999.9,N
1607036715.9,286047002.5,N
1607036735.7,286047000.2,N
1607036755.6,286046999.7,N
1607036775.4,286046999.7,N
1607036795.2,286047002.3,N
1607036815.1,286047004.4,N
1607036816.0,286047004.4,N
1607036835.8,286047000.6,N
1607036855.6,286046999.8,N
1607036875.5,286046999.9,N
1607036895.3,286047002.8,N
1607036915.2,286047002.3,N
1607036935.9,286047002.3,N
1607036955.7,286047002.7,N
1607036975.6,286047000.2,N
1607036995.4,286046998.3,N
1607037015.3,286046998.6,N
1607037035.1,286046998.1,N
1607037036.0,286046998.1,N
1607037055.8,286046998.9,N
1607037075.7,286046999.1,N
1607037095.5,286046998.3,N
1607037115.4,286047000.4,N
1607037135.2,286047001.9,N
1607037155.0,286047002.6,N
1607037155.9,286047002.6,N
1607037175.8,286047000.9,N
1607037195.6,286047000.0,N
1607037215.4,286047000.5,N
1607037235.3,286047000.1,N
1607037255.1,286047004.2,N
1607037275.9,286047003.3,N
1607037295.7,286047006.4,Y
1607037315.5,286047007.6,P
1607037335.4,286047005.8,N
1607037355.2,286047004.7,N
1607037375.0,286047004.5,N
1607037375.9,286047004.5,N
1607037395.8,286047005.3,N
1607037415.6,286047002.6,N
1607037435.5,286047001.1,N
1607037455.3,286047002.8,N
1607037475.1,286047000.0,N
1607037495.9,286047000.5,N
1607037515.7,286047000.1,N
1607037535.5,286047000.0,N
1607037555.4,286047000.0,N
1607037575.2,286047000.5,N
1607037595.1,286046999.8,N
1607037596.0,286046999.8,N
1607037615.8,286047002.5,N
1607037635.6,286047001.7,N
1607037655.5,286047004.4,N
1607037675.3,286047001.4,N
1607037695.1,286047003.7,N
1607037715.9,286047005.6,N
1607037735.7,286047005.9,N
1607037755.6,286047000.1,N
1607037775.4,286047002.7,N
1607037795.2,286047002.8,N
1607037815.1,286046999.9,N
1607037816.0,286046999.9,N
1607037835.8,286047002.2,N
1607037855.6,286047001.4,N
1607037875.5,286047003.6,N
1607037895.3,286047005.5,N
1607037915.2,286047003.6,N
1607037935.9,286047005.3,N
1607037955.7,286047007.5,Y
1607037975.6,286047003.0,P
1607037995.4,286047008.7,P
1607038015.2,286047006.1,N
1607038035.1,286047006.9,N
1607038036.0,286047006.9,N
1607038055.8,286047006.6,N
1607038075.7,286047008.4,Y
1607038095.5,286047002.5,P
1607038115.3,286047003.3,N
1607038135.2,286047003.2,N
1607038155.0,286047005.4,Y
1607038155.9,286047005.4,P
1607038175.7,286047000.9,N
1607038195.6,286047000.6,N
1607038215.4,286046998.4,N
1607038235.3,286046996.9,N
1607038255.1,286046998.3,N
1607038256.0,286046998.3,N
1607038275.8,286046998.2,N
1607038295.7,286047000.2,N
1607038315.5,286047002.1,N
1607038335.3,286046999.7,N
1607038355.2,286047000.0,N
1607038375.0,286046999.7,N
1607038375.9,286046999.7,N
1607038395.8,286046999.9,N
1607038415.6,286047000.5,N
1607038435.4,286047002.7,N
1607038455.3,286047000.8,N
1607038475.1,286047000.8,N
1607038495.8,286046998.2,N
1607038515.7,286046998.7,N
1607038535.5,286046998.5,N
1607038555.4,286047000.8,N
1607038575.2,286047000.4,N
1607038595.0,286047000.5,N
1607038595.9,286047000.5,N
1607038615.8,286047002.3,N
1607038635.6,286047005.1,N
1607038655.4,286047001.3,N
1607038675.3,286047002.3,N
1607038695.1,286047002.0,N
1607038715.8,286047001.7,N
1607038735.7,286047002.4,N
1607038755.5,286047002.3,N
1607038775.4,286047001.3,N
1607038795.2,286047004.7,N
1607038815.0,286047006.4,Y
1607038815.9,286047006.4,P
1607038835.8,286047003.7,N
1607038855.6,286047003.0,N
1607038875.5,286047004.4,N
1607038895.3,286047003.3,N
1607038915.1,286047003.2,N
1607038935.9,286047001.7,N
1607038955.7,286047001.6,N
1607038975.5,286047002.0,N
1607038995.4,286047002.5,N
1607039015.2,286047002.0,N
1607039035.0,286047001.6,N
1607039036.0,286047001.6,N
1607039055.8,286047001.6,N
1607039075.6,286047001.5,N
1607039095.5,286046999.8,N
1607039115.3,286047002.8,N
1607039135.1,286047000.2,N
1607039155.9,286047000.4,N
1607039175.7,286047000.3,N
1607039195.5,286047000.0,N
1607039215.4,286047002.5,N
1607039235.2,286047002.1,N
1607039255.1,286047002.2,N
1607039256.0,286047002.2,N
1607039275.8,286047001.1,N
1607039295.6,286046998.4,N
1607039315.5,286046998.7,N
1607039335.3,286046998.1,N
1607039355.1,286046999.8,N
1607039375.9,286047002.7,N
1607039395.7,286046999.8,N
1607039415.6,286047000.0,N
1607039435.4,286047002.3,N
1607039455.2,286047005.5,Y
1607039475.1,286047004.9,P
1607039476.0,286047004.9,N
1607039495.8,286047005.2,N
1607039515.6,286047003.2,N
1607039535.5,286047003.5,N
1607039555.3,286047006.1,Y
1607039575.2,286047002.5,P
1607039595.9,286047002.7,P
1607039615.7,286047002.2,P
1607039635.6,286047000.6,N
1607039655.4,286047002.1,N
1607039675.3,286047003.9,Y
1607039695.1,286047001.0,P
1607039696.0,286047001.0,N
1607039715.8,286047004.3,P
1607039735.7,286047003.2,N
1607039755.5,286047003.6,N
1607039775.3,286047001.5,N
1607039795.2,286047002.1,N
1607039815.0,286047001.5,N
1607039815.9,286047001.5,N
1607039835.8,286047001.9,N
1607039855.6,286047003.7,Y
1607039875.4,286047002.2,P
1607039895.3,286047000.2,P
1607039915.1,286047002.6,N
1607039935.8,286046998.3,N
1607039955.7,286046999.3,N
1607039975.5,286046996.7,N
1607039995.4,286046996.7,N
